This is the latest recevied weather packets stored in our database for station/object AE5HO. If no packets are shown the sender has not sent any weather packets the latest 10 day(s).
| Time | Temp. | Humidity | Pressure | Rain* | Wind** | Luminosity | Snow |
|---|---|---|---|---|---|---|---|
| 1787476077 | 29.44° C | 60% | 1014.6 hPa | 0 mm | - | 0 W/m² | - |
| 1787475773 | 29.44° C | 62% | 1014.7 hPa | 0 mm | - | 0 W/m² | - |
| 1787475468 | 30° C | 59% | 1014.5 hPa | 0 mm | - | 0 W/m² | - |
| 1787475164 | 30° C | 57% | 1014.5 hPa | 0 mm | - | 0 W/m² | - |
| 1787474859 | 30° C | 59% | 1014.4 hPa | 0 mm | - | 0 W/m² | - |
| 1787474555 | 30° C | 58% | 1014.5 hPa | 0 mm | - | 0 W/m² | - |
| 1787474250 | 30° C | 58% | 1014.7 hPa | 0 mm | - | 0 W/m² | - |
| 1787473947 | 30° C | 58% | 1014.7 hPa | 0 mm | - | 0 W/m² | - |
| 1787473646 | 30° C | 57% | 1014.6 hPa | 0 mm | - | 0 W/m² | - |
| 1787473346 | 30° C | 59% | 1014.7 hPa | 0 mm | - | 0 W/m² | - |
| 1787473041 | 30° C | 57% | 1014.9 hPa | 0 mm | - | 0 W/m² | - |
| 1787472737 | 30° C | 56% | 1015.1 hPa | 0 mm | - | 0 W/m² | - |
| 1787472432 | 30° C | 56% | 1015.5 hPa | 0 mm | - | 0 W/m² | - |
| 1787472128 | 30° C | 57% | 1015.1 hPa | 0 mm | - | 0 W/m² | - |
| 1787471823 | 30° C | 58% | 1015.1 hPa | 0 mm | - | 0 W/m² | - |
| 1787471519 | 30° C | 58% | 1015.1 hPa | 0 mm | - | 0 W/m² | - |
| 1787471220 | 30° C | 59% | 1015.1 hPa | 0 mm | - | 0 W/m² | - |
| 1787470917 | 30° C | 59% | 1015 hPa | 0 mm | - | 0 W/m² | - |
| 1787470612 | 29.44° C | 58% | 1014.8 hPa | 0 mm | - | 0 W/m² | - |
| 1787470309 | 30° C | 59% | 1014.8 hPa | 0 mm | - | 0 W/m² | - |
| 1787470004 | 30° C | 58% | 1014.8 hPa | 0 mm | - | 0 W/m² | - |
| 1787469700 | 30° C | 59% | 1015.1 hPa | 0 mm | - | 0 W/m² | - |
| 1787469395 | 30.56° C | 58% | 1015 hPa | 0 mm | - | 0 W/m² | - |
| 1787469091 | 30.56° C | 55% | 1014.9 hPa | 0 mm | - | 0 W/m² | - |
| 1787468787 | 30.56° C | 55% | 1015.1 hPa | 0 mm | - | 0 W/m² | - |
* Rain latest hour (hover to see other rain measurements)
** Current wind speed in m/s (hover to see current wind gust speed)